Location: Agadir-Ikarkaouin
(31.1503°N, 9.0246°W)
Time: 04:06:33
(UTC+00:00)

CZ-2C R/B - Pass Details

Date: 18 September 2020
Orbit: 785 x 870 km, 98.2° (Epoch: 23 October)

Event Time Altitude Azimuth Distance (km) Brightness Sun altitude
Rises 21:02:19 0° 359° (N) 3,422 6.2 -31.0°
Reaches altitude 10° 21:04:56 10° 349° (N) 2,493 5.5 -31.5°
Maximum altitude 21:09:42 30° 289° (WNW) 1,488 4.4 -32.4°
Drops below altitude 10° 21:14:31 10° 230° (SW) 2,506 5.4 -33.4°
Sets 21:17:09 0° 220° (SW) 3,442 6.0 -33.9°
